Location: Alafon
(8.4500°N, 4.2333°E)
Time: 09:10:29
(UTC+00:00)

A-11 Canister half - Pass Details

Date: 15 August 2021
Orbit: 1515 x 1685 km, 47.2° (Epoch: 21 September)

Event Time Altitude Azimuth Distance (km) Brightness Sun altitude
Rises 09:14:17 0° 205° (SSW) 4,657 11.3 52.1°
Reaches altitude 10° 09:17:31 10° 198° (SSW) 3,669 10.9 52.8°
Maximum altitude 09:26:09 45° 128° (SE) 1,972 10.8 54.9°
Drops below altitude 10° 09:34:51 10° 59° (ENE) 3,707 11.7 57.0°
Sets 09:38:06 0° 53° (NE) 4,709 12.0 57.8°
